Погода в Колодезном

Россия / Воронежская область     51°21′00″N   39°17′55″E
темп.,
°C
ветер,
м/с
пор.,
м/с
влажн.,
%
обл.,
%
осадки,
мм/ч
давл.,
гПа
погр.,
м
6 марта, сб
сб600:00−2сз249090 0.0 1015197
03:00−3ссз249181 0.0 1017205
06:00−3ссз239090 0.0 1016191
09:00−3сз348495 0.0 1017302
12:00−2сз4675100 0.0 1017705
15:00−1сз676399 0.1 10161150
18:00−4сз7107566 0.1 1017935
21:00−5сз697446 0.1 1018779
7 марта, вс
вс700:00−5зсз59730 0.0 1019601
03:00−6зсз59730 0.0 1020427
06:00−6зюз59780 0.0 1019418
09:00−4зюз7127517 0.0 1017845
12:00−2юз91454100 0.0 10131100
15:000юз111749100 0.0 10091456
18:000зюз91863100 0.0 10061363
21:00−1зюз101787100 0.1 10051098
8 марта, пн
пн800:00−1з91591100 0.4 1006964
03:00−3зюз3118397 1.2 1006741
06:00−3юз6127427 0.0 1005427
09:00−1з8128663 0.2 10051107
12:00−1зсз81075100 0.3 10061101
15:00−3зсз7105382 0.3 10081085
18:00−5сз6107118 0.0 1010802
21:00−6зсз59699 0.0 1013842
9 марта, вт
вт900:00−6зсз48730 0.0 1013544
03:00−7зсз36790 0.0 1014331
06:00−8зсз358417 0.0 1015291
09:00−8сз348251 0.0 1015321
12:00−5сз346691 0.0 1015819
15:00−5сз456696 0.1 1016906
18:00−6ссз5678100 0.1 1017671
21:00−7ссз5672100 0.2 1020770
10 марта, ср
ср1000:00−9ссз577388 0.0 1022711
03:00−10сз457775 0.0 1023568
06:00−11сз458177 0.0 1024412
09:00−11сз357444 0.0 1025432
12:00−8зсз345498 0.0 1025715
15:00−6зюз465499 0.0 1024979
18:00−6зсз5785100 0.1 1022657
21:00−6з3592100 0.4 1023376